Time,TemperatureF,DewpointF,PressureIn,WindDirection,WindDirectionDegrees,WindSpeedMPH,WindSpeedGustMPH,Humidity,HourlyPrecipIn,Conditions,Clouds,dailyrainin,SoftwareType,DateUTC
2013-11-27 00:03:00,31.8,31.3,29.85,WNW,292,2.0,4.9,98,0.00,,,0.00,meteobridge,2013-11-27 05:03:00,
2013-11-27 00:08:00,31.8,31.3,29.85,WNW,287,0.9,4.9,98,0.00,,,0.00,meteobridge,2013-11-27 05:08:00,
2013-11-27 00:13:00,31.6,31.1,29.85,West,280,2.0,8.1,98,0.00,,,0.00,meteobridge,2013-11-27 05:13:00,
2013-11-27 00:18:00,31.6,31.1,29.85,WNW,291,4.9,11.0,98,0.00,,,0.00,meteobridge,2013-11-27 05:18:00,
2013-11-27 00:23:00,31.5,30.9,29.85,WNW,296,0.0,6.0,98,0.00,,,0.00,meteobridge,2013-11-27 05:23:00,
2013-11-27 00:28:00,31.5,30.9,29.85,WNW,295,0.0,4.9,98,0.00,,,0.00,meteobridge,2013-11-27 05:28:00,
2013-11-27 00:33:00,31.5,30.9,29.84,WNW,294,8.1,8.1,98,0.00,,,0.00,meteobridge,2013-11-27 05:33:00,
2013-11-27 00:38:00,31.3,30.7,29.84,WNW,301,2.0,4.0,98,0.00,,,0.00,meteobridge,2013-11-27 05:38:00,
2013-11-27 00:43:00,31.3,30.7,29.84,WSW,240,0.9,2.9,98,0.00,,,0.00,meteobridge,2013-11-27 05:43:00,
2013-11-27 00:48:00,31.3,30.7,29.84,WNW,296,0.0,4.9,98,0.00,,,0.00,meteobridge,2013-11-27 05:48:00,
2013-11-27 00:53:00,31.3,30.7,29.84,NW,304,0.0,2.9,98,0.00,,,0.00,meteobridge,2013-11-27 05:53:00,
2013-11-27 00:58:00,31.3,30.7,29.84,WNW,302,0.9,8.1,98,0.00,,,0.00,meteobridge,2013-11-27 05:58:00,
2013-11-27 01:03:00,31.3,30.7,29.85,WNW,282,4.9,6.0,98,0.00,,,0.00,meteobridge,2013-11-27 06:03:00,
2013-11-27 01:08:00,31.3,30.7,29.85,NW,306,2.0,6.0,98,0.00,,,0.00,meteobridge,2013-11-27 06:08:00,
2013-11-27 01:14:00,31.3,30.7,29.85,WNW,285,0.0,6.0,98,0.00,,,0.00,meteobridge,2013-11-27 06:14:00,
2013-11-27 01:19:00,31.3,30.7,29.85,WNW,292,2.0,4.9,98,0.00,,,0.00,meteobridge,2013-11-27 06:19:00,
2013-11-27 01:24:00,31.3,30.7,29.85,NW,305,2.9,2.9,98,0.00,,,0.00,meteobridge,2013-11-27 06:24:00,
2013-11-27 01:29:00,31.3,30.7,29.85,NW,305,0.0,0.9,98,0.00,,,0.00,meteobridge,2013-11-27 06:29:00,
2013-11-27 01:34:00,31.3,30.7,29.85,WNW,288,2.0,2.9,98,0.00,,,0.00,meteobridge,2013-11-27 06:34:00,
2013-11-27 01:39:00,31.3,30.7,29.85,West,272,0.0,2.9,98,0.00,,,0.00,meteobridge,2013-11-27 06:39:00,
2013-11-27 01:44:00,31.3,30.7,29.86,WNW,298,0.9,2.0,98,0.00,,,0.00,meteobridge,2013-11-27 06:44:00,
2013-11-27 01:49:00,31.3,30.7,29.86,WNW,301,0.9,4.9,98,0.00,,,0.00,meteobridge,2013-11-27 06:49:00,
2013-11-27 01:55:00,31.3,30.7,29.86,NW,311,0.0,6.0,98,0.00,,,0.00,meteobridge,2013-11-27 06:55:00,
2013-11-27 02:00:00,31.3,30.7,29.87,WNW,285,2.0,6.0,98,0.00,,,0.00,meteobridge,2013-11-27 07:00:00,
2013-11-27 02:05:00,31.3,30.7,29.87,WNW,287,2.0,4.9,98,0.00,,,0.00,meteobridge,2013-11-27 07:05:00,
2013-11-27 02:10:00,31.3,30.7,29.87,WNW,285,4.9,6.0,98,0.00,,,0.00,meteobridge,2013-11-27 07:10:00,
2013-11-27 02:15:00,31.3,30.7,29.86,WNW,299,0.0,0.0,98,0.00,,,0.00,meteobridge,2013-11-27 07:15:00,
2013-11-27 02:20:00,31.3,30.7,29.86,WNW,302,0.9,2.9,98,0.00,,,0.00,meteobridge,2013-11-27 07:20:00,
2013-11-27 02:25:00,31.3,30.7,29.86,WNW,288,4.9,6.0,98,0.00,,,0.00,meteobridge,2013-11-27 07:25:00,
2013-11-27 02:30:00,31.3,30.7,29.86,WNW,294,0.9,2.9,98,0.00,,,0.00,meteobridge,2013-11-27 07:30:00,
2013-11-27 02:35:00,31.3,30.7,29.86,NW,313,0.0,4.9,98,0.00,,,0.00,meteobridge,2013-11-27 07:35:00,
2013-11-27 02:41:00,31.3,30.7,29.86,NW,312,2.9,2.9,98,0.00,,,0.00,meteobridge,2013-11-27 07:41:00,
2013-11-27 02:46:00,31.3,30.7,29.87,WNW,291,0.0,0.9,98,0.00,,,0.00,meteobridge,2013-11-27 07:46:00,
2013-11-27 02:51:00,31.3,30.7,29.87,West,277,6.9,6.9,98,0.00,,,0.00,meteobridge,2013-11-27 07:51:00,
2013-11-27 02:56:00,31.3,30.7,29.87,West,270,0.0,4.9,98,0.00,,,0.00,meteobridge,2013-11-27 07:56:00,
2013-11-27 03:01:00,31.3,30.7,29.86,WNW,288,0.0,2.9,98,0.00,,,0.00,meteobridge,2013-11-27 08:01:00,
2013-11-27 03:06:00,31.3,30.7,29.86,WNW,298,2.9,4.9,98,0.00,,,0.00,meteobridge,2013-11-27 08:06:00,
2013-11-27 03:11:00,31.3,30.6,29.86,WNW,289,0.9,11.0,97,0.00,,,0.00,meteobridge,2013-11-27 08:11:00,
2013-11-27 03:16:00,31.3,30.6,29.86,WNW,288,0.0,4.9,97,0.00,,,0.00,meteobridge,2013-11-27 08:16:00,
2013-11-27 03:21:00,31.3,30.6,29.86,West,281,2.0,6.0,97,0.00,,,0.00,meteobridge,2013-11-27 08:21:00,
2013-11-27 03:27:00,31.3,30.6,29.86,WNW,287,0.9,2.9,97,0.00,,,0.00,meteobridge,2013-11-27 08:27:00,
2013-11-27 03:32:00,31.3,30.6,29.86,WNW,282,2.9,6.0,97,0.00,,,0.00,meteobridge,2013-11-27 08:32:00,
2013-11-27 03:37:00,31.3,30.6,29.86,WNW,301,2.0,4.9,97,0.00,,,0.00,meteobridge,2013-11-27 08:37:00,
2013-11-27 03:42:00,31.3,30.6,29.86,WNW,295,0.0,6.0,97,0.00,,,0.00,meteobridge,2013-11-27 08:42:00,
2013-11-27 03:47:00,31.3,30.6,29.86,WNW,292,0.9,2.9,97,0.00,,,0.00,meteobridge,2013-11-27 08:47:00,
2013-11-27 03:52:00,31.3,30.6,29.86,NW,304,2.0,4.9,97,0.00,,,0.00,meteobridge,2013-11-27 08:52:00,
2013-11-27 03:57:00,31.3,30.6,29.86,NW,316,0.9,2.9,97,0.00,,,0.00,meteobridge,2013-11-27 08:57:00,
2013-11-27 04:02:00,31.3,30.6,29.86,NW,316,2.0,2.0,97,0.00,,,0.00,meteobridge,2013-11-27 09:02:00,
2013-11-27 04:07:00,31.3,30.6,29.86,WNW,301,0.0,2.0,97,0.00,,,0.00,meteobridge,2013-11-27 09:07:00,
2013-11-27 04:12:00,31.3,30.6,29.86,WNW,299,2.0,4.9,97,0.00,,,0.00,meteobridge,2013-11-27 09:12:00,
2013-11-27 04:17:00,31.3,30.6,29.86,WNW,292,0.9,2.0,97,0.00,,,0.00,meteobridge,2013-11-27 09:17:00,
2013-11-27 04:22:00,31.3,30.6,29.86,WNW,295,0.0,6.0,97,0.00,,,0.00,meteobridge,2013-11-27 09:22:00,
2013-11-27 04:27:00,31.3,30.6,29.86,WNW,296,0.9,0.9,97,0.00,,,0.00,meteobridge,2013-11-27 09:27:00,
2013-11-27 04:32:00,31.3,30.6,29.86,WNW,289,4.0,6.0,97,0.00,,,0.00,meteobridge,2013-11-27 09:32:00,
2013-11-27 04:37:00,31.3,30.6,29.86,WNW,296,0.9,4.0,97,0.00,,,0.00,meteobridge,2013-11-27 09:37:00,
2013-11-27 04:42:00,31.3,30.6,29.86,WNW,301,2.0,4.9,97,0.00,,,0.00,meteobridge,2013-11-27 09:42:00,
2013-11-27 04:47:00,31.3,30.6,29.87,WNW,287,0.0,4.0,97,0.00,,,0.00,meteobridge,2013-11-27 09:47:00,
2013-11-27 04:52:00,31.3,30.2,29.87,West,280,0.0,2.9,96,0.00,,,0.00,meteobridge,2013-11-27 09:52:00,
2013-11-27 04:57:00,31.3,30.2,29.87,NW,305,2.0,4.9,96,0.00,,,0.00,meteobridge,2013-11-27 09:57:00,
2013-11-27 05:02:00,31.3,30.2,29.87,WNW,296,0.0,4.9,96,0.00,,,0.00,meteobridge,2013-11-27 10:02:00,
2013-11-27 05:07:00,31.3,30.2,29.87,West,281,6.0,6.0,96,0.00,,,0.00,meteobridge,2013-11-27 10:07:00,
2013-11-27 05:12:00,31.3,30.2,29.87,WNW,298,4.0,6.0,96,0.00,,,0.00,meteobridge,2013-11-27 10:12:00,
2013-11-27 05:18:00,31.3,30.2,29.87,WNW,298,0.0,0.0,96,0.00,,,0.00,meteobridge,2013-11-27 10:18:00,
2013-11-27 05:23:00,31.5,30.4,29.87,WNW,298,0.0,2.9,96,0.00,,,0.00,meteobridge,2013-11-27 10:23:00,
2013-11-27 05:28:00,31.5,30.4,29.87,WNW,298,0.9,2.9,96,0.00,,,0.00,meteobridge,2013-11-27 10:28:00,
2013-11-27 05:33:00,31.5,30.4,29.88,WNW,294,2.9,4.9,96,0.00,,,0.00,meteobridge,2013-11-27 10:33:00,
2013-11-27 05:38:00,31.5,30.4,29.88,WNW,291,0.0,0.9,96,0.00,,,0.00,meteobridge,2013-11-27 10:38:00,
2013-11-27 05:43:00,31.5,30.4,29.88,WNW,292,0.0,2.0,96,0.00,,,0.00,meteobridge,2013-11-27 10:43:00,
2013-11-27 05:48:00,31.5,30.2,29.88,WNW,292,2.0,4.9,95,0.00,,,0.00,meteobridge,2013-11-27 10:48:00,
2013-11-27 05:53:00,31.5,30.2,29.88,WNW,284,2.0,4.9,95,0.00,,,0.00,meteobridge,2013-11-27 10:53:00,
2013-11-27 05:58:00,31.5,30.2,29.88,WNW,289,0.0,0.0,95,0.00,,,0.00,meteobridge,2013-11-27 10:58:00,
2013-11-27 06:03:00,31.5,30.2,29.89,WNW,289,0.0,4.0,95,0.00,,,0.00,meteobridge,2013-11-27 11:03:00,
2013-11-27 06:08:00,31.5,30.2,29.89,WNW,292,0.0,0.9,95,0.00,,,0.00,meteobridge,2013-11-27 11:08:00,
2013-11-27 06:13:00,31.5,30.2,29.89,WNW,301,2.9,6.0,95,0.00,,,0.00,meteobridge,2013-11-27 11:13:00,
2013-11-27 06:18:00,31.5,30.2,29.88,WNW,301,0.0,2.9,95,0.00,,,0.00,meteobridge,2013-11-27 11:18:00,
2013-11-27 06:23:00,31.5,30.2,29.88,WNW,301,0.0,2.0,95,0.00,,,0.00,meteobridge,2013-11-27 11:23:00,
2013-11-27 06:28:00,31.5,30.2,29.88,WNW,301,2.0,2.0,95,0.00,,,0.00,meteobridge,2013-11-27 11:28:00,
2013-11-27 06:33:00,31.5,30.2,29.88,West,278,4.0,6.9,95,0.00,,,0.00,meteobridge,2013-11-27 11:33:00,
2013-11-27 06:38:00,31.5,30.2,29.88,West,280,2.9,10.1,95,0.00,,,0.00,meteobridge,2013-11-27 11:38:00,
2013-11-27 06:43:00,31.5,30.2,29.88,WNW,287,0.9,6.0,95,0.00,,,0.00,meteobridge,2013-11-27 11:43:00,
2013-11-27 06:48:00,31.5,30.2,29.88,WNW,298,2.9,2.9,95,0.00,,,0.00,meteobridge,2013-11-27 11:48:00,
2013-11-27 06:53:00,31.5,30.0,29.88,West,275,2.9,12.1,94,0.00,,,0.00,meteobridge,2013-11-27 11:53:00,
2013-11-27 06:58:00,31.3,29.8,29.88,WNW,287,2.9,11.0,94,0.00,,,0.00,meteobridge,2013-11-27 11:58:00,
2013-11-27 07:03:00,31.3,29.5,29.89,WNW,282,6.9,10.1,93,0.00,,,0.00,meteobridge,2013-11-27 12:03:00,
2013-11-27 07:08:00,30.9,28.9,29.89,West,274,6.0,17.0,92,0.00,,,0.00,meteobridge,2013-11-27 12:08:00,
2013-11-27 07:13:00,30.9,28.6,29.89,WNW,287,0.9,6.0,91,0.00,,,0.00,meteobridge,2013-11-27 12:13:00,
2013-11-27 07:18:00,30.7,28.4,29.91,West,281,4.0,4.9,91,0.00,,,0.00,meteobridge,2013-11-27 12:18:00,
2013-11-27 07:23:00,30.4,27.5,29.91,WNW,289,2.0,12.1,89,0.00,,,0.00,meteobridge,2013-11-27 12:23:00,
2013-11-27 07:28:00,30.4,27.3,29.91,WNW,289,0.0,2.0,88,0.00,,,0.00,meteobridge,2013-11-27 12:28:00,
2013-11-27 07:33:00,30.4,27.0,29.91,WNW,288,2.9,4.0,87,0.00,,,0.00,meteobridge,2013-11-27 12:33:00,
2013-11-27 07:38:00,30.0,26.1,29.91,WNW,298,0.9,8.1,85,0.00,,,0.00,meteobridge,2013-11-27 12:38:00,
2013-11-27 07:43:00,30.0,25.7,29.91,WNW,289,4.9,12.1,84,0.00,,,0.00,meteobridge,2013-11-27 12:43:00,
2013-11-27 07:48:00,30.0,25.5,29.92,North,0,0.0,8.1,83,0.00,,,0.00,meteobridge,2013-11-27 12:48:00,
2013-11-27 07:53:00,30.0,25.2,29.92,NW,304,8.1,14.1,82,0.00,,,0.00,meteobridge,2013-11-27 12:53:00,
2013-11-27 07:58:00,29.8,24.8,29.92,NE,38,4.9,12.1,81,0.00,,,0.00,meteobridge,2013-11-27 12:58:00,
2013-11-27 08:03:00,29.8,24.4,29.92,West,280,4.9,6.9,80,0.00,,,0.00,meteobridge,2013-11-27 13:03:00,
2013-11-27 08:08:00,29.8,24.4,29.92,West,270,4.9,6.9,80,0.00,,,0.00,meteobridge,2013-11-27 13:08:00,
2013-11-27 08:13:00,29.7,24.3,29.92,WNW,299,6.0,11.0,80,0.00,,,0.00,meteobridge,2013-11-27 13:13:00,
2013-11-27 08:18:00,29.7,24.3,29.93,NW,306,0.9,4.9,80,0.00,,,0.00,meteobridge,2013-11-27 13:18:00,
2013-11-27 08:23:00,29.5,23.7,29.93,West,265,6.0,11.0,79,0.00,,,0.00,meteobridge,2013-11-27 13:23:00,
2013-11-27 08:28:00,29.5,23.5,29.93,WNW,298,6.0,12.1,78,0.00,,,0.00,meteobridge,2013-11-27 13:28:00,
2013-11-27 08:33:00,29.5,23.2,29.94,West,277,6.0,12.1,77,0.00,,,0.00,meteobridge,2013-11-27 13:33:00,
2013-11-27 08:38:00,29.5,23.5,29.94,West,261,4.9,8.1,78,0.00,,,0.00,meteobridge,2013-11-27 13:38:00,
2013-11-27 08:43:00,29.3,23.5,29.94,West,270,2.0,16.1,79,0.00,,,0.00,meteobridge,2013-11-27 13:43:00,
2013-11-27 08:48:00,29.1,23.2,29.95,West,268,10.1,13.0,78,0.00,,,0.00,meteobridge,2013-11-27 13:48:00,
2013-11-27 08:53:00,28.9,22.3,29.95,NW,306,2.0,13.0,76,0.00,,,0.00,meteobridge,2013-11-27 13:53:00,
2013-11-27 08:58:00,28.9,22.3,29.95,NW,306,4.9,8.9,76,0.00,,,0.00,meteobridge,2013-11-27 13:58:00,
2013-11-27 09:03:00,28.9,22.1,29.96,WNW,287,6.0,12.1,75,0.00,,,0.00,meteobridge,2013-11-27 14:03:00,
2013-11-27 09:08:00,28.8,21.6,29.96,North,0,0.9,8.9,74,0.00,,,0.00,meteobridge,2013-11-27 14:08:00,
2013-11-27 09:13:00,28.8,21.6,29.96,WNW,295,8.1,8.9,74,0.00,,,0.00,meteobridge,2013-11-27 14:13:00,
2013-11-27 09:18:00,28.8,21.9,29.96,West,281,4.9,6.9,75,0.00,,,0.00,meteobridge,2013-11-27 14:18:00,
2013-11-27 09:23:00,28.8,21.9,29.96,West,275,0.0,17.0,75,0.00,,,0.00,meteobridge,2013-11-27 14:23:00,
2013-11-27 09:28:00,28.4,21.6,29.96,West,277,2.9,12.1,75,0.00,,,0.00,meteobridge,2013-11-27 14:28:00,
2013-11-27 09:33:00,28.0,20.8,29.96,West,270,4.9,12.1,74,0.00,,,0.00,meteobridge,2013-11-27 14:33:00,
2013-11-27 09:38:00,27.9,20.7,29.96,West,271,8.1,14.1,74,0.00,,,0.00,meteobridge,2013-11-27 14:38:00,
2013-11-27 09:43:00,27.9,20.7,29.96,NW,305,2.0,8.1,74,0.00,,,0.00,meteobridge,2013-11-27 14:43:00,
2013-11-27 09:48:00,27.7,20.5,29.97,NNE,20,8.1,19.0,74,0.00,,,0.00,meteobridge,2013-11-27 14:48:00,
2013-11-27 09:53:00,27.5,20.3,29.97,WNW,288,8.9,17.0,74,0.00,,,0.00,meteobridge,2013-11-27 14:53:00,
2013-11-27 09:58:00,28.2,21.0,29.97,WSW,250,10.1,10.1,74,0.01,,,0.01,meteobridge,2013-11-27 14:58:00,
2013-11-27 10:03:00,28.2,20.7,29.97,WSW,243,6.0,10.1,73,0.01,,,0.01,meteobridge,2013-11-27 15:03:00,
2013-11-27 10:08:00,28.2,20.3,29.97,West,281,14.1,14.1,72,0.01,,,0.01,meteobridge,2013-11-27 15:08:00,
2013-11-27 10:13:00,27.9,20.3,29.97,West,272,6.0,17.0,73,0.01,,,0.01,meteobridge,2013-11-27 15:13:00,
2013-11-27 10:18:00,27.9,20.3,29.97,WNW,296,8.1,16.1,73,0.01,,,0.01,meteobridge,2013-11-27 15:18:00,
2013-11-27 10:23:00,28.2,20.3,29.97,WSW,251,10.1,15.0,72,0.01,,,0.01,meteobridge,2013-11-27 15:23:00,
2013-11-27 10:28:00,28.6,20.7,29.97,NNW,328,2.0,12.1,72,0.01,,,0.01,meteobridge,2013-11-27 15:28:00,
2013-11-27 10:33:00,28.9,21.4,29.97,West,278,2.9,6.9,73,0.01,,,0.01,meteobridge,2013-11-27 15:33:00,
2013-11-27 10:38:00,28.8,20.5,29.97,West,267,16.1,17.0,71,0.01,,,0.01,meteobridge,2013-11-27 15:38:00,
2013-11-27 10:43:00,28.8,20.5,29.97,WNW,282,8.1,19.0,71,0.01,,,0.01,meteobridge,2013-11-27 15:43:00,
2013-11-27 10:49:00,29.1,21.2,29.97,West,278,0.9,12.1,72,0.01,,,0.01,meteobridge,2013-11-27 15:49:00,
2013-11-27 10:54:00,29.3,21.0,29.97,WNW,282,2.9,14.1,71,0.01,,,0.01,meteobridge,2013-11-27 15:54:00,
2013-11-27 10:59:00,29.5,21.2,29.97,East,90,4.9,13.0,71,0.00,,,0.01,meteobridge,2013-11-27 15:59:00,
2013-11-27 11:04:00,29.7,21.7,29.97,West,280,6.9,8.1,72,0.00,,,0.01,meteobridge,2013-11-27 16:04:00,
2013-11-27 11:14:00,29.1,20.8,29.97,WNW,287,11.0,19.0,71,0.01,,,0.02,meteobridge,2013-11-27 16:14:00,
2013-11-27 11:19:00,29.3,21.4,29.96,West,267,14.1,15.0,72,0.01,,,0.02,meteobridge,2013-11-27 16:19:00,
2013-11-27 11:24:00,29.5,21.6,29.96,West,275,2.9,12.1,72,0.01,,,0.02,meteobridge,2013-11-27 16:24:00,
2013-11-27 11:29:00,29.3,21.4,29.96,WNW,284,11.0,15.0,72,0.02,,,0.03,meteobridge,2013-11-27 16:29:00,
2013-11-27 11:34:00,29.1,21.2,29.96,NW,325,2.0,13.0,72,0.02,,,0.03,meteobridge,2013-11-27 16:34:00,
2013-11-27 11:39:00,28.9,21.0,29.96,West,281,0.9,6.9,72,0.02,,,0.03,meteobridge,2013-11-27 16:39:00,
2013-11-27 11:44:00,28.8,20.8,29.96,WNW,285,2.9,16.1,72,0.02,,,0.03,meteobridge,2013-11-27 16:44:00,
2013-11-27 11:49:00,28.6,21.0,29.96,West,260,12.1,14.1,73,0.02,,,0.03,meteobridge,2013-11-27 16:49:00,
2013-11-27 11:54:00,28.4,21.2,29.96,West,278,2.0,8.1,74,0.02,,,0.03,meteobridge,2013-11-27 16:54:00,
2013-11-27 11:59:00,28.2,21.0,29.96,WSW,251,2.9,21.9,74,0.02,,,0.03,meteobridge,2013-11-27 16:59:00,
2013-11-27 12:04:00,27.9,21.0,29.97,West,263,14.1,19.9,75,0.02,,,0.03,meteobridge,2013-11-27 17:04:00,
2013-11-27 12:09:00,27.9,21.0,29.97,NW,304,6.0,12.1,75,0.01,,,0.03,meteobridge,2013-11-27 17:09:00,
2013-11-27 12:14:00,27.9,21.0,29.97,NNW,336,2.0,13.0,75,0.01,,,0.03,meteobridge,2013-11-27 17:14:00,
2013-11-27 12:19:00,27.9,21.2,29.97,WNW,296,11.0,14.1,76,0.01,,,0.03,meteobridge,2013-11-27 17:19:00,
2013-11-27 12:24:00,28.0,21.4,29.97,West,271,2.9,8.1,76,0.01,,,0.03,meteobridge,2013-11-27 17:24:00,
2013-11-27 12:29:00,28.2,21.9,29.97,WNW,299,6.0,12.1,77,0.00,,,0.03,meteobridge,2013-11-27 17:29:00,
2013-11-27 12:34:00,28.2,21.9,29.97,WNW,287,0.0,4.9,77,0.00,,,0.03,meteobridge,2013-11-27 17:34:00,
2013-11-27 12:39:00,27.9,21.9,29.97,WNW,302,4.9,14.1,78,0.00,,,0.03,meteobridge,2013-11-27 17:39:00,
2013-11-27 12:44:00,27.9,22.3,29.97,West,278,8.1,11.0,79,0.00,,,0.03,meteobridge,2013-11-27 17:44:00,
2013-11-27 12:49:00,27.7,22.1,29.97,West,261,0.9,6.9,79,0.00,,,0.03,meteobridge,2013-11-27 17:49:00,
2013-11-27 12:54:00,27.7,22.1,29.97,NW,311,8.9,19.0,79,0.00,,,0.03,meteobridge,2013-11-27 17:54:00,
2013-11-27 12:59:00,27.9,21.6,29.97,NNE,27,4.9,16.1,77,0.00,,,0.03,meteobridge,2013-11-27 17:59:00,
2013-11-27 13:04:00,27.9,21.2,29.97,WSW,246,8.1,17.0,76,0.00,,,0.03,meteobridge,2013-11-27 18:04:00,
2013-11-27 13:09:00,27.7,21.0,29.97,West,264,13.0,16.1,76,0.00,,,0.03,meteobridge,2013-11-27 18:09:00,
2013-11-27 13:14:00,27.5,21.0,29.97,WNW,284,0.9,16.1,76,0.00,,,0.03,meteobridge,2013-11-27 18:14:00,
2013-11-27 13:19:00,27.3,21.0,29.98,WNW,288,17.0,17.0,77,0.00,,,0.03,meteobridge,2013-11-27 18:19:00,
2013-11-27 13:24:00,27.1,20.8,29.98,West,275,2.0,12.1,77,0.00,,,0.03,meteobridge,2013-11-27 18:24:00,
2013-11-27 13:29:00,27.5,21.2,29.98,WNW,301,4.9,11.0,77,0.00,,,0.03,meteobridge,2013-11-27 18:29:00,
2013-11-27 13:34:00,27.7,21.4,29.98,West,272,2.0,11.0,77,0.00,,,0.03,meteobridge,2013-11-27 18:34:00,
2013-11-27 13:39:00,27.9,21.2,29.98,WSW,241,6.9,11.0,76,0.00,,,0.03,meteobridge,2013-11-27 18:39:00,
2013-11-27 13:44:00,27.9,20.7,29.98,North,350,0.9,13.0,74,0.00,,,0.03,meteobridge,2013-11-27 18:44:00,
2013-11-27 13:49:00,27.9,20.7,29.99,West,272,4.9,4.9,74,0.00,,,0.03,meteobridge,2013-11-27 18:49:00,
2013-11-27 13:54:00,27.9,20.3,29.99,WNW,291,6.0,11.0,73,0.00,,,0.03,meteobridge,2013-11-27 18:54:00,
2013-11-27 13:59:00,27.9,20.3,29.99,WSW,256,4.9,12.1,73,0.00,,,0.03,meteobridge,2013-11-27 18:59:00,
2013-11-27 14:04:00,27.9,19.9,29.99,West,278,6.0,10.1,72,0.00,,,0.03,meteobridge,2013-11-27 19:04:00,
2013-11-27 14:09:00,28.0,20.1,29.99,WNW,294,0.9,11.0,72,0.00,,,0.03,meteobridge,2013-11-27 19:09:00,
2013-11-27 14:14:00,28.2,20.1,29.99,WNW,291,0.9,6.0,71,0.00,,,0.03,meteobridge,2013-11-27 19:14:00,
2013-11-27 14:19:00,28.4,19.6,30.00,West,271,6.0,13.0,69,0.00,,,0.03,meteobridge,2013-11-27 19:19:00,
2013-11-27 14:24:00,28.4,19.6,30.00,West,275,6.0,12.1,69,0.00,,,0.03,meteobridge,2013-11-27 19:24:00,
2013-11-27 14:29:00,28.4,19.6,30.00,West,272,4.9,11.0,69,0.00,,,0.03,meteobridge,2013-11-27 19:29:00,
2013-11-27 14:34:00,28.4,19.6,30.01,WNW,284,6.0,11.0,69,0.00,,,0.03,meteobridge,2013-11-27 19:34:00,
2013-11-27 14:39:00,28.6,19.8,30.01,WNW,292,4.9,11.0,69,0.00,,,0.03,meteobridge,2013-11-27 19:39:00,
2013-11-27 14:44:00,28.8,19.6,30.01,West,280,0.0,13.0,68,0.00,,,0.03,meteobridge,2013-11-27 19:44:00,
2013-11-27 14:49:00,28.8,18.9,30.01,West,263,10.1,16.1,66,0.00,,,0.03,meteobridge,2013-11-27 19:49:00,
2013-11-27 14:54:00,28.8,18.5,30.01,WNW,296,2.0,11.0,65,0.00,,,0.03,meteobridge,2013-11-27 19:54:00,
2013-11-27 14:59:00,28.8,18.9,30.01,West,278,2.9,6.9,66,0.00,,,0.03,meteobridge,2013-11-27 19:59:00,
2013-11-27 15:04:00,28.8,18.9,30.02,WNW,292,4.0,6.0,66,0.00,,,0.03,meteobridge,2013-11-27 20:04:00,
2013-11-27 15:09:00,28.8,19.6,30.02,WSW,258,2.9,8.1,68,0.00,,,0.03,meteobridge,2013-11-27 20:09:00,
2013-11-27 15:14:00,28.8,19.2,30.02,NW,322,12.1,13.0,67,0.00,,,0.03,meteobridge,2013-11-27 20:14:00,
2013-11-27 15:19:00,28.8,18.9,30.03,West,270,2.0,4.9,66,0.00,,,0.03,meteobridge,2013-11-27 20:19:00,
2013-11-27 15:24:00,28.8,18.5,30.03,West,260,0.0,6.9,65,0.00,,,0.03,meteobridge,2013-11-27 20:24:00,
2013-11-27 15:29:00,28.8,18.9,30.03,West,267,11.0,11.0,66,0.00,,,0.03,meteobridge,2013-11-27 20:29:00,
2013-11-27 15:34:00,28.6,19.0,30.04,West,280,0.0,4.9,67,0.00,,,0.03,meteobridge,2013-11-27 20:34:00,
2013-11-27 15:39:00,28.6,18.7,30.04,West,271,4.0,6.9,66,0.00,,,0.03,meteobridge,2013-11-27 20:39:00,
2013-11-27 15:44:00,28.6,17.2,30.04,West,277,4.9,14.1,62,0.00,,,0.03,meteobridge,2013-11-27 20:44:00,
2013-11-27 15:49:00,28.6,16.9,30.05,WNW,289,8.9,8.9,61,0.00,,,0.03,meteobridge,2013-11-27 20:49:00,
2013-11-27 15:54:00,28.4,17.1,30.05,West,277,2.9,11.0,62,0.00,,,0.03,meteobridge,2013-11-27 20:54:00,
2013-11-27 15:59:00,28.4,17.1,30.05,West,277,0.9,6.9,62,0.00,,,0.03,meteobridge,2013-11-27 20:59:00,
2013-11-27 16:04:00,28.2,16.5,30.07,West,261,16.1,17.9,61,0.00,,,0.03,meteobridge,2013-11-27 21:04:00,
2013-11-27 16:09:00,28.0,16.3,30.07,NW,308,8.1,11.0,61,0.00,,,0.03,meteobridge,2013-11-27 21:09:00,
2013-11-27 16:14:00,27.9,16.9,30.07,WNW,296,2.0,11.0,63,0.00,,,0.03,meteobridge,2013-11-27 21:14:00,
2013-11-27 16:19:00,27.9,17.2,30.08,WNW,282,2.0,2.9,64,0.00,,,0.03,meteobridge,2013-11-27 21:19:00,
2013-11-27 16:29:00,27.9,17.2,30.08,WNW,285,6.9,6.9,64,0.00,,,0.03,meteobridge,2013-11-27 21:29:00,
2013-11-27 16:34:00,27.9,16.9,30.09,WNW,284,8.1,8.1,63,0.00,,,0.03,meteobridge,2013-11-27 21:34:00,
2013-11-27 16:39:00,27.9,16.5,30.09,WNW,289,2.0,12.1,62,0.00,,,0.03,meteobridge,2013-11-27 21:39:00,
2013-11-27 16:44:00,27.9,16.5,30.09,WNW,282,4.9,12.1,62,0.00,,,0.03,meteobridge,2013-11-27 21:44:00,
2013-11-27 16:49:00,27.9,16.5,30.10,West,280,0.9,6.9,62,0.00,,,0.03,meteobridge,2013-11-27 21:49:00,
2013-11-27 16:54:00,27.9,16.5,30.10,West,274,11.0,13.0,62,0.00,,,0.03,meteobridge,2013-11-27 21:54:00,
2013-11-27 16:59:00,27.9,16.2,30.10,WSW,251,10.1,10.1,61,0.00,,,0.03,meteobridge,2013-11-27 21:59:00,
2013-11-27 17:04:00,27.9,16.5,30.10,West,267,0.0,10.1,62,0.00,,,0.03,meteobridge,2013-11-27 22:04:00,
2013-11-27 17:09:00,27.9,16.5,30.10,West,274,0.9,2.0,62,0.00,,,0.03,meteobridge,2013-11-27 22:09:00,
2013-11-27 17:14:00,27.9,16.5,30.11,WNW,291,0.9,4.9,62,0.00,,,0.03,meteobridge,2013-11-27 22:14:00,
2013-11-27 17:19:00,27.9,16.5,30.11,WSW,257,2.0,11.0,62,0.00,,,0.03,meteobridge,2013-11-27 22:19:00,
2013-11-27 17:24:00,27.9,16.2,30.11,West,270,0.0,11.0,61,0.00,,,0.03,meteobridge,2013-11-27 22:24:00,
2013-11-27 17:29:00,27.9,16.2,30.12,West,260,8.9,8.9,61,0.00,,,0.03,meteobridge,2013-11-27 22:29:00,
2013-11-27 17:34:00,27.9,16.2,30.12,WNW,284,0.0,4.0,61,0.00,,,0.03,meteobridge,2013-11-27 22:34:00,
2013-11-27 17:39:00,27.9,16.2,30.12,NW,306,4.9,6.0,61,0.00,,,0.03,meteobridge,2013-11-27 22:39:00,
2013-11-27 17:44:00,27.9,16.2,30.13,West,275,6.9,6.9,61,0.00,,,0.03,meteobridge,2013-11-27 22:44:00,
2013-11-27 17:49:00,27.9,16.5,30.13,WSW,253,0.9,2.9,62,0.00,,,0.03,meteobridge,2013-11-27 22:49:00,
2013-11-27 17:54:00,27.9,16.5,30.13,West,275,4.0,10.1,62,0.00,,,0.03,meteobridge,2013-11-27 22:54:00,
2013-11-27 17:59:00,27.9,16.5,30.14,WNW,287,0.0,6.0,62,0.00,,,0.03,meteobridge,2013-11-27 22:59:00,
2013-11-27 18:04:00,27.9,16.5,30.14,WNW,288,2.0,4.9,62,0.00,,,0.03,meteobridge,2013-11-27 23:04:00,
2013-11-27 18:09:00,27.9,16.5,30.14,WNW,285,4.9,6.9,62,0.00,,,0.03,meteobridge,2013-11-27 23:09:00,
2013-11-27 18:14:00,27.9,16.5,30.15,West,270,0.9,6.9,62,0.00,,,0.03,meteobridge,2013-11-27 23:14:00,
2013-11-27 18:19:00,27.9,16.5,30.15,WNW,288,4.0,6.0,62,0.00,,,0.03,meteobridge,2013-11-27 23:19:00,
2013-11-27 18:24:00,27.9,16.9,30.15,West,265,13.0,17.0,63,0.00,,,0.03,meteobridge,2013-11-27 23:24:00,
2013-11-27 18:29:00,27.3,18.1,30.16,WNW,291,2.0,6.0,68,0.00,,,0.03,meteobridge,2013-11-27 23:29:00,
2013-11-27 18:34:00,27.3,18.1,30.16,WNW,294,2.0,2.9,68,0.00,,,0.03,meteobridge,2013-11-27 23:34:00,
2013-11-27 18:44:00,27.5,18.0,30.16,West,281,2.9,2.9,67,0.00,,,0.03,meteobridge,2013-11-27 23:44:00,
2013-11-27 18:49:00,27.5,18.0,30.16,WNW,291,2.0,4.0,67,0.00,,,0.03,meteobridge,2013-11-27 23:49:00,
2013-11-27 18:55:00,27.5,18.0,30.16,WNW,292,2.0,4.9,67,0.00,,,0.03,meteobridge,2013-11-27 23:55:00,
2013-11-27 19:00:00,27.7,18.1,30.17,WNW,294,2.0,6.9,67,0.00,,,0.03,meteobridge,2013-11-28 00:00:00,
2013-11-27 19:05:00,27.7,17.8,30.17,WNW,284,2.0,6.9,66,0.00,,,0.03,meteobridge,2013-11-28 00:05:00,
2013-11-27 19:10:00,27.7,17.8,30.17,West,281,0.0,4.9,66,0.00,,,0.03,meteobridge,2013-11-28 00:10:00,
2013-11-27 19:15:00,27.7,17.8,30.17,West,277,0.0,4.9,66,0.00,,,0.03,meteobridge,2013-11-28 00:15:00,
2013-11-27 19:20:00,27.7,17.8,30.17,West,280,0.0,8.1,66,0.00,,,0.03,meteobridge,2013-11-28 00:20:00,
2013-11-27 19:25:00,27.7,17.8,30.17,WNW,288,0.0,2.9,66,0.00,,,0.03,meteobridge,2013-11-28 00:25:00,
2013-11-27 19:30:00,27.7,18.1,30.18,WNW,287,0.0,0.0,67,0.00,,,0.03,meteobridge,2013-11-28 00:30:00,
2013-11-27 19:35:00,27.7,18.5,30.18,West,278,2.9,2.9,68,0.00,,,0.03,meteobridge,2013-11-28 00:35:00,
2013-11-27 19:40:00,27.5,18.3,30.18,West,267,0.0,2.9,68,0.00,,,0.03,meteobridge,2013-11-28 00:40:00,
2013-11-27 19:45:00,27.5,18.3,30.19,West,275,0.0,2.0,68,0.00,,,0.03,meteobridge,2013-11-28 00:45:00,
2013-11-27 19:50:00,27.5,18.7,30.19,WSW,258,0.9,2.9,69,0.00,,,0.03,meteobridge,2013-11-28 00:50:00,
2013-11-27 19:55:00,27.5,18.7,30.19,West,260,0.9,2.0,69,0.00,,,0.03,meteobridge,2013-11-28 00:55:00,
2013-11-27 20:01:00,27.5,19.0,30.19,WSW,257,0.9,4.0,70,0.00,,,0.03,meteobridge,2013-11-28 01:01:00,
2013-11-27 20:06:00,27.5,19.0,30.19,WSW,258,0.0,6.0,70,0.00,,,0.03,meteobridge,2013-11-28 01:06:00,
2013-11-27 20:11:00,27.3,19.2,30.19,West,275,2.9,4.9,71,0.00,,,0.03,meteobridge,2013-11-28 01:11:00,
2013-11-27 20:16:00,27.3,19.2,30.20,West,272,0.9,4.9,71,0.00,,,0.03,meteobridge,2013-11-28 01:16:00,
2013-11-27 20:21:00,27.3,19.2,30.20,SW,236,6.0,6.9,71,0.00,,,0.03,meteobridge,2013-11-28 01:21:00,
2013-11-27 20:26:00,27.3,19.6,30.20,West,261,2.0,4.0,72,0.00,,,0.03,meteobridge,2013-11-28 01:26:00,
2013-11-27 20:31:00,27.3,19.6,30.21,WSW,257,0.0,8.1,72,0.00,,,0.03,meteobridge,2013-11-28 01:31:00,
2013-11-27 20:36:00,27.3,19.6,30.21,West,264,0.9,6.0,72,0.00,,,0.03,meteobridge,2013-11-28 01:36:00,
2013-11-27 20:41:00,27.3,19.8,30.21,NW,308,4.9,6.0,73,0.00,,,0.03,meteobridge,2013-11-28 01:41:00,
2013-11-27 20:46:00,27.3,19.8,30.21,West,274,0.0,2.0,73,0.00,,,0.03,meteobridge,2013-11-28 01:46:00,
2013-11-27 20:51:00,27.1,19.6,30.21,WSW,250,2.0,6.9,73,0.00,,,0.03,meteobridge,2013-11-28 01:51:00,
2013-11-27 20:56:00,27.1,19.9,30.21,West,281,2.0,6.0,74,0.00,,,0.03,meteobridge,2013-11-28 01:56:00,
2013-11-27 21:01:00,27.1,19.9,30.22,West,263,2.0,4.0,74,0.00,,,0.03,meteobridge,2013-11-28 02:01:00,
2013-11-27 21:06:00,27.0,20.1,30.22,WSW,247,2.9,8.1,75,0.00,,,0.03,meteobridge,2013-11-28 02:06:00,
2013-11-27 21:11:00,27.0,20.1,30.22,West,263,0.9,6.0,75,0.00,,,0.03,meteobridge,2013-11-28 02:11:00,
2013-11-27 21:17:00,27.0,20.1,30.23,North,356,2.9,4.9,75,0.00,,,0.03,meteobridge,2013-11-28 02:17:00,
2013-11-27 21:22:00,27.0,20.1,30.23,SW,220,2.0,4.9,75,0.00,,,0.03,meteobridge,2013-11-28 02:22:00,
2013-11-27 21:27:00,27.0,20.1,30.23,WSW,254,0.9,4.9,75,0.00,,,0.03,meteobridge,2013-11-28 02:27:00,
2013-11-27 21:32:00,26.8,19.9,30.23,WSW,246,0.9,6.9,75,0.00,,,0.03,meteobridge,2013-11-28 02:32:00,
2013-11-27 21:37:00,26.8,19.6,30.23,West,263,4.0,10.1,74,0.00,,,0.03,meteobridge,2013-11-28 02:37:00,
2013-11-27 21:42:00,26.6,19.4,30.23,WSW,257,2.0,8.1,74,0.00,,,0.03,meteobridge,2013-11-28 02:42:00,
2013-11-27 21:47:00,26.6,19.0,30.24,WNW,299,2.9,12.1,73,0.00,,,0.03,meteobridge,2013-11-28 02:47:00,
2013-11-27 21:52:00,26.6,19.4,30.24,West,263,2.0,6.0,74,0.00,,,0.03,meteobridge,2013-11-28 02:52:00,
2013-11-27 21:57:00,26.6,19.0,30.24,West,271,4.0,12.1,73,0.00,,,0.03,meteobridge,2013-11-28 02:57:00,
2013-11-27 22:02:00,26.4,18.9,30.25,WSW,253,0.9,6.9,73,0.00,,,0.03,meteobridge,2013-11-28 03:02:00,
2013-11-27 22:07:00,26.4,18.9,30.25,West,268,2.0,4.9,73,0.00,,,0.03,meteobridge,2013-11-28 03:07:00,
2013-11-27 22:12:00,26.4,18.9,30.25,SW,233,4.0,4.9,73,0.00,,,0.03,meteobridge,2013-11-28 03:12:00,
2013-11-27 22:17:00,26.4,18.9,30.26,WSW,256,4.0,6.9,73,0.00,,,0.03,meteobridge,2013-11-28 03:17:00,
2013-11-27 22:22:00,26.4,18.7,30.26,WNW,284,0.9,4.9,72,0.00,,,0.03,meteobridge,2013-11-28 03:22:00,
2013-11-27 22:27:00,26.2,18.5,30.26,West,277,2.9,4.9,72,0.00,,,0.03,meteobridge,2013-11-28 03:27:00,
2013-11-27 22:32:00,26.2,18.5,30.27,West,264,2.0,2.9,72,0.00,,,0.03,meteobridge,2013-11-28 03:32:00,
2013-11-27 22:37:00,26.1,18.3,30.27,SW,229,4.9,6.0,72,0.00,,,0.03,meteobridge,2013-11-28 03:37:00,
2013-11-27 22:42:00,26.1,18.3,30.27,West,275,2.9,6.9,72,0.00,,,0.03,meteobridge,2013-11-28 03:42:00,
2013-11-27 22:47:00,26.1,18.3,30.28,SSW,212,0.9,6.9,72,0.00,,,0.03,meteobridge,2013-11-28 03:47:00,
2013-11-27 22:52:00,26.1,18.3,30.28,West,275,6.0,6.9,72,0.00,,,0.03,meteobridge,2013-11-28 03:52:00,
2013-11-27 22:57:00,25.9,18.1,30.28,West,278,0.0,6.9,72,0.00,,,0.03,meteobridge,2013-11-28 03:57:00,
2013-11-27 23:02:00,25.9,18.1,30.28,West,275,0.9,6.9,72,0.00,,,0.03,meteobridge,2013-11-28 04:02:00,
2013-11-27 23:07:00,25.7,18.0,30.28,West,271,0.0,2.0,72,0.00,,,0.03,meteobridge,2013-11-28 04:07:00,
2013-11-27 23:12:00,25.5,17.8,30.28,West,264,2.0,4.9,72,0.00,,,0.03,meteobridge,2013-11-28 04:12:00,
2013-11-27 23:17:00,25.3,17.6,30.28,West,267,2.9,12.1,72,0.00,,,0.03,meteobridge,2013-11-28 04:17:00,
2013-11-27 23:22:00,25.2,17.4,30.28,West,264,2.0,4.9,72,0.00,,,0.03,meteobridge,2013-11-28 04:22:00,
2013-11-27 23:27:00,24.8,17.1,30.28,West,274,0.0,0.9,72,0.00,,,0.03,meteobridge,2013-11-28 04:27:00,
2013-11-27 23:32:00,24.6,16.9,30.29,West,270,2.0,2.0,72,0.00,,,0.03,meteobridge,2013-11-28 04:32:00,
2013-11-27 23:37:00,24.4,17.1,30.29,West,260,0.9,4.0,73,0.00,,,0.03,meteobridge,2013-11-28 04:37:00,
2013-11-27 23:42:00,24.4,17.1,30.29,West,265,0.0,2.9,73,0.00,,,0.03,meteobridge,2013-11-28 04:42:00,
2013-11-27 23:47:00,24.1,16.7,30.29,West,267,0.9,2.9,73,0.00,,,0.03,meteobridge,2013-11-28 04:47:00,
2013-11-27 23:52:00,24.1,16.7,30.29,West,260,0.0,4.0,73,0.00,,,0.03,meteobridge,2013-11-28 04:52:00,
2013-11-27 23:57:00,23.9,16.5,30.29,West,277,0.0,2.0,73,0.00,,,0.03,meteobridge,2013-11-28 04:57:00,